Time,TemperatureF,DewpointF,PressureIn,WindDirection,WindDirectionDegrees,WindSpeedMPH,WindSpeedGustMPH,Humidity,HourlyPrecipIn,Conditions,Clouds,dailyrainin,SoftwareType,DateUTC
2013-05-25 00:05:00,43.0,42.0,29.98,SE,145,0.0,-999.0,96,-99.99,,,0.91,weatherlink.com 1.10,2013-05-25 04:05:00,
2013-05-25 00:20:00,43.0,42.0,29.98,SSE,155,2.0,-999.0,96,-99.99,,,0.01,weatherlink.com 1.10,2013-05-25 04:20:00,
2013-05-25 00:35:00,43.2,42.0,29.96,SE,134,6.0,-999.0,96,-99.99,,,0.02,weatherlink.com 1.10,2013-05-25 04:35:00,
2013-05-25 00:51:00,43.1,42.0,29.94,South,170,1.0,-999.0,96,-99.99,,,0.04,weatherlink.com 1.10,2013-05-25 04:51:00,
2013-05-25 01:06:00,43.0,42.0,29.92,SSE,156,1.0,-999.0,96,-99.99,,,0.06,weatherlink.com 1.10,2013-05-25 05:06:00,
2013-05-25 01:21:00,42.9,42.0,29.94,South,178,7.0,-999.0,96,-99.99,,,0.09,weatherlink.com 1.10,2013-05-25 05:21:00,
2013-05-25 01:36:00,43.0,42.0,29.94,SE,128,0.0,-999.0,96,-99.99,,,0.09,weatherlink.com 1.10,2013-05-25 05:36:00,
2013-05-25 01:51:00,43.1,42.0,29.93,SSE,148,0.0,-999.0,96,-99.99,,,0.10,weatherlink.com 1.10,2013-05-25 05:51:00,
2013-05-25 02:06:00,43.1,42.0,29.93,South,169,1.0,-999.0,96,-99.99,,,0.11,weatherlink.com 1.10,2013-05-25 06:06:00,
2013-05-25 02:21:00,43.1,42.0,29.93,South,172,5.0,-999.0,96,-99.99,,,0.12,weatherlink.com 1.10,2013-05-25 06:21:00,
2013-05-25 02:36:00,43.2,42.0,29.92,SE,146,4.0,-999.0,96,-99.99,,,0.13,weatherlink.com 1.10,2013-05-25 06:36:00,
2013-05-25 02:51:00,43.2,42.0,29.93,SE,139,0.0,-999.0,96,-99.99,,,0.17,weatherlink.com 1.10,2013-05-25 06:51:00,
2013-05-25 03:06:00,43.2,42.0,29.93,NE,44,2.0,-999.0,96,-99.99,,,0.18,weatherlink.com 1.10,2013-05-25 07:06:00,
2013-05-25 03:22:00,43.2,42.0,29.92,ESE,107,0.0,-999.0,96,-99.99,,,0.21,weatherlink.com 1.10,2013-05-25 07:22:00,
2013-05-25 03:36:00,43.2,42.0,29.92,SE,142,4.0,-999.0,96,-99.99,,,0.22,weatherlink.com 1.10,2013-05-25 07:36:00,
2013-05-25 03:51:00,43.3,42.0,29.92,SSE,161,4.0,-999.0,96,-99.99,,,0.22,weatherlink.com 1.10,2013-05-25 07:51:00,
2013-05-25 04:06:00,43.3,42.0,29.92,South,169,6.0,-999.0,96,-99.99,,,0.23,weatherlink.com 1.10,2013-05-25 08:06:00,
2013-05-25 04:22:00,43.3,42.0,29.92,SE,139,0.0,-999.0,96,-99.99,,,0.25,weatherlink.com 1.10,2013-05-25 08:22:00,
2013-05-25 04:36:00,43.4,42.0,29.92,SE,144,0.0,-999.0,96,-99.99,,,0.27,weatherlink.com 1.10,2013-05-25 08:36:00,
2013-05-25 04:51:00,43.5,43.0,29.92,SSE,159,8.0,-999.0,96,-99.99,,,0.28,weatherlink.com 1.10,2013-05-25 08:51:00,
2013-05-25 05:06:00,43.5,43.0,29.92,SE,143,1.0,-999.0,96,-99.99,,,0.28,weatherlink.com 1.10,2013-05-25 09:06:00,
2013-05-25 05:21:00,43.5,43.0,29.92,SSE,150,0.0,-999.0,96,-99.99,,,0.29,weatherlink.com 1.10,2013-05-25 09:21:00,
2013-05-25 05:36:00,43.4,42.0,29.93,SSE,168,9.0,-999.0,96,-99.99,,,0.29,weatherlink.com 1.10,2013-05-25 09:36:00,
2013-05-25 05:51:00,43.3,42.0,29.93,SSE,161,5.0,-999.0,96,-99.99,,,0.29,weatherlink.com 1.10,2013-05-25 09:51:00,
2013-05-25 06:06:00,43.4,42.0,29.93,SE,136,0.0,-999.0,96,-99.99,,,0.31,weatherlink.com 1.10,2013-05-25 10:06:00,
2013-05-25 06:21:00,43.4,42.0,29.93,ESE,116,0.0,-999.0,96,-99.99,,,0.32,weatherlink.com 1.10,2013-05-25 10:21:00,
2013-05-25 06:36:00,43.6,43.0,29.93,South,169,4.0,-999.0,96,-99.99,,,0.33,weatherlink.com 1.10,2013-05-25 10:36:00,
2013-05-25 06:51:00,43.6,43.0,29.94,ESE,121,11.0,-999.0,96,-99.99,,,0.33,weatherlink.com 1.10,2013-05-25 10:51:00,
2013-05-25 07:07:00,43.5,43.0,29.94,SE,142,5.0,-999.0,96,-99.99,,,0.34,weatherlink.com 1.10,2013-05-25 11:07:00,
2013-05-25 07:21:00,43.7,43.0,29.94,SE,136,0.0,-999.0,96,-99.99,,,0.35,weatherlink.com 1.10,2013-05-25 11:21:00,
2013-05-25 07:36:00,43.7,43.0,29.93,SSE,159,0.0,-999.0,96,-99.99,,,0.38,weatherlink.com 1.10,2013-05-25 11:36:00,
2013-05-25 07:51:00,43.8,43.0,29.93,SSE,160,0.0,-999.0,96,-99.99,,,0.40,weatherlink.com 1.10,2013-05-25 11:51:00,
2013-05-25 08:06:00,43.9,43.0,29.93,South,175,6.0,-999.0,96,-99.99,,,0.41,weatherlink.com 1.10,2013-05-25 12:06:00,
2013-05-25 08:22:00,44.1,43.0,29.93,SE,137,2.0,-999.0,96,-99.99,,,0.42,weatherlink.com 1.10,2013-05-25 12:22:00,
2013-05-25 08:37:00,44.4,43.0,29.92,South,171,2.0,-999.0,96,-99.99,,,0.43,weatherlink.com 1.10,2013-05-25 12:37:00,
2013-05-25 08:53:00,44.6,44.0,29.92,South,180,0.0,-999.0,96,-99.99,,,0.45,weatherlink.com 1.10,2013-05-25 12:53:00,
2013-05-25 09:07:00,44.7,44.0,29.93,South,179,0.0,-999.0,96,-99.99,,,0.45,weatherlink.com 1.10,2013-05-25 13:07:00,
2013-05-25 09:23:00,44.8,44.0,29.92,South,170,0.0,-999.0,96,-99.99,,,0.47,weatherlink.com 1.10,2013-05-25 13:23:00,
2013-05-25 09:37:00,44.8,44.0,29.92,SE,137,0.0,-999.0,96,-99.99,,,0.49,weatherlink.com 1.10,2013-05-25 13:37:00,
2013-05-25 09:53:00,45.1,44.0,29.92,South,169,0.0,-999.0,95,-99.99,,,0.51,weatherlink.com 1.10,2013-05-25 13:53:00,
2013-05-25 10:07:00,44.9,44.0,29.92,SSW,192,3.0,-999.0,95,-99.99,,,0.52,weatherlink.com 1.10,2013-05-25 14:07:00,
2013-05-25 10:22:00,44.9,44.0,29.92,SE,139,0.0,-999.0,96,-99.99,,,0.53,weatherlink.com 1.10,2013-05-25 14:22:00,
2013-05-25 10:37:00,44.7,43.0,29.91,SSE,168,9.0,-999.0,95,-99.99,,,0.53,weatherlink.com 1.10,2013-05-25 14:37:00,
2013-05-25 10:52:00,44.8,44.0,29.91,SSE,156,7.0,-999.0,95,-99.99,,,0.54,weatherlink.com 1.10,2013-05-25 14:52:00,
2013-05-25 11:07:00,44.6,43.0,29.91,SSE,158,4.0,-999.0,95,-99.99,,,0.55,weatherlink.com 1.10,2013-05-25 15:07:00,
2013-05-25 11:22:00,44.7,43.0,29.91,SSE,158,2.0,-999.0,95,-99.99,,,0.57,weatherlink.com 1.10,2013-05-25 15:22:00,
2013-05-25 11:37:00,44.7,43.0,29.91,SSE,150,5.0,-999.0,95,-99.99,,,0.60,weatherlink.com 1.10,2013-05-25 15:37:00,
2013-05-25 11:52:00,44.5,43.0,29.91,SSE,148,1.0,-999.0,95,-99.99,,,0.63,weatherlink.com 1.10,2013-05-25 15:52:00,
2013-05-25 12:07:00,44.5,43.0,29.91,SSE,149,7.0,-999.0,95,-99.99,,,0.63,weatherlink.com 1.10,2013-05-25 16:07:00,
2013-05-25 12:22:00,44.6,43.0,29.91,NNE,21,3.0,-999.0,95,-99.99,,,0.64,weatherlink.com 1.10,2013-05-25 16:22:00,
2013-05-25 12:37:00,44.7,43.0,29.92,SE,140,9.0,-999.0,94,-99.99,,,0.65,weatherlink.com 1.10,2013-05-25 16:37:00,
2013-05-25 12:52:00,44.8,43.0,29.92,ESE,123,5.0,-999.0,94,-99.99,,,0.66,weatherlink.com 1.10,2013-05-25 16:52:00,
2013-05-25 13:07:00,44.9,43.0,29.92,South,177,0.0,-999.0,94,-99.99,,,0.67,weatherlink.com 1.10,2013-05-25 17:07:00,
2013-05-25 13:22:00,44.8,43.0,29.92,SSW,207,2.0,-999.0,94,-99.99,,,0.68,weatherlink.com 1.10,2013-05-25 17:22:00,
2013-05-25 13:37:00,45.3,44.0,29.91,SE,141,8.0,-999.0,94,-99.99,,,0.68,weatherlink.com 1.10,2013-05-25 17:37:00,
2013-05-25 13:52:00,45.1,43.0,29.91,South,191,4.0,-999.0,93,-99.99,,,0.68,weatherlink.com 1.10,2013-05-25 17:52:00,
2013-05-25 14:07:00,45.2,43.0,29.92,ESE,117,7.0,-999.0,93,-99.99,,,0.70,weatherlink.com 1.10,2013-05-25 18:07:00,
2013-05-25 14:23:00,44.6,43.0,29.92,ESE,122,4.0,-999.0,93,-99.99,,,0.72,weatherlink.com 1.10,2013-05-25 18:23:00,
2013-05-25 14:38:00,44.7,43.0,29.93,SE,145,7.0,-999.0,93,-99.99,,,0.74,weatherlink.com 1.10,2013-05-25 18:38:00,
2013-05-25 14:54:00,44.8,43.0,29.93,SSE,163,0.0,-999.0,94,-99.99,,,0.77,weatherlink.com 1.10,2013-05-25 18:54:00,
2013-05-25 15:08:00,44.6,43.0,29.94,SE,138,1.0,-999.0,94,-99.99,,,0.78,weatherlink.com 1.10,2013-05-25 19:08:00,
2013-05-25 15:24:00,44.0,42.0,29.94,ENE,64,0.0,-999.0,94,-99.99,,,0.78,weatherlink.com 1.10,2013-05-25 19:24:00,
2013-05-25 15:38:00,43.7,42.0,29.94,South,173,1.0,-999.0,93,-99.99,,,0.80,weatherlink.com 1.10,2013-05-25 19:38:00,
2013-05-25 15:53:00,43.7,42.0,29.95,South,182,2.0,-999.0,93,-99.99,,,0.81,weatherlink.com 1.10,2013-05-25 19:53:00,
2013-05-25 16:08:00,43.9,42.0,29.95,ESE,123,11.0,-999.0,94,-99.99,,,0.83,weatherlink.com 1.10,2013-05-25 20:08:00,
2013-05-25 16:23:00,43.7,42.0,29.95,South,179,0.0,-999.0,94,-99.99,,,0.86,weatherlink.com 1.10,2013-05-25 20:23:00,
2013-05-25 16:38:00,43.8,42.0,29.95,SSE,153,9.0,-999.0,94,-99.99,,,0.87,weatherlink.com 1.10,2013-05-25 20:38:00,
2013-05-25 16:53:00,43.7,42.0,29.95,South,171,0.0,-999.0,94,-99.99,,,0.89,weatherlink.com 1.10,2013-05-25 20:53:00,
2013-05-25 17:08:00,43.8,42.0,29.95,ESE,118,0.0,-999.0,94,-99.99,,,0.91,weatherlink.com 1.10,2013-05-25 21:08:00,
2013-05-25 17:23:00,44.0,42.0,29.95,SSE,155,0.0,-999.0,94,-99.99,,,0.92,weatherlink.com 1.10,2013-05-25 21:23:00,
2013-05-25 17:38:00,43.7,42.0,29.94,South,186,0.0,-999.0,94,-99.99,,,0.94,weatherlink.com 1.10,2013-05-25 21:38:00,
2013-05-25 17:53:00,43.9,43.0,29.94,South,182,4.0,-999.0,95,-99.99,,,0.94,weatherlink.com 1.10,2013-05-25 21:53:00,
2013-05-25 18:09:00,43.9,42.0,29.94,South,173,4.0,-999.0,94,-99.99,,,0.95,weatherlink.com 1.10,2013-05-25 22:09:00,
2013-05-25 18:23:00,43.9,42.0,29.94,SSE,148,4.0,-999.0,94,-99.99,,,0.95,weatherlink.com 1.10,2013-05-25 22:23:00,
2013-05-25 18:38:00,44.1,43.0,29.94,SSE,155,0.0,-999.0,94,-99.99,,,0.95,weatherlink.com 1.10,2013-05-25 22:38:00,
2013-05-25 18:53:00,44.2,43.0,29.95,ESE,123,2.0,-999.0,94,-99.99,,,0.96,weatherlink.com 1.10,2013-05-25 22:53:00,
2013-05-25 19:08:00,44.3,43.0,29.94,South,178,5.0,-999.0,94,-99.99,,,0.96,weatherlink.com 1.10,2013-05-25 23:08:00,
2013-05-25 19:23:00,44.2,43.0,29.95,SE,124,0.0,-999.0,94,-99.99,,,0.96,weatherlink.com 1.10,2013-05-25 23:23:00,
2013-05-25 19:39:00,44.2,42.0,29.95,SE,134,4.0,-999.0,93,-99.99,,,0.96,weatherlink.com 1.10,2013-05-25 23:39:00,
2013-05-25 19:53:00,44.2,42.0,29.95,South,172,8.0,-999.0,92,-99.99,,,0.96,weatherlink.com 1.10,2013-05-25 23:53:00,
2013-05-25 20:08:00,44.1,42.0,29.95,SSE,161,0.0,-999.0,92,-99.99,,,0.97,weatherlink.com 1.10,2013-05-26 00:08:00,
2013-05-25 20:23:00,44.0,42.0,29.95,SSE,153,4.0,-999.0,92,-99.99,,,0.97,weatherlink.com 1.10,2013-05-26 00:23:00,
2013-05-25 20:38:00,43.9,42.0,29.95,SSE,147,0.0,-999.0,92,-99.99,,,0.97,weatherlink.com 1.10,2013-05-26 00:38:00,
2013-05-25 20:53:00,43.8,42.0,29.95,ESE,115,5.0,-999.0,92,-99.99,,,0.97,weatherlink.com 1.10,2013-05-26 00:53:00,
2013-05-25 21:08:00,43.5,42.0,29.95,ENE,76,1.0,-999.0,93,-99.99,,,0.97,weatherlink.com 1.10,2013-05-26 01:08:00,
2013-05-25 21:23:00,43.5,42.0,29.95,SE,125,5.0,-999.0,93,-99.99,,,0.98,weatherlink.com 1.10,2013-05-26 01:23:00,
2013-05-25 21:39:00,43.5,42.0,29.95,ENE,77,0.0,-999.0,93,-99.99,,,0.98,weatherlink.com 1.10,2013-05-26 01:39:00,
2013-05-25 21:53:00,43.6,42.0,29.94,ESE,117,0.0,-999.0,93,-99.99,,,0.98,weatherlink.com 1.10,2013-05-26 01:53:00,
2013-05-25 22:08:00,43.6,42.0,29.94,ESE,104,1.0,-999.0,93,-99.99,,,0.98,weatherlink.com 1.10,2013-05-26 02:08:00,
2013-05-25 22:24:00,43.5,41.0,29.93,ESE,115,8.0,-999.0,92,-99.99,,,0.98,weatherlink.com 1.10,2013-05-26 02:24:00,
2013-05-25 22:39:00,43.6,42.0,29.93,ESE,105,0.0,-999.0,92,-99.99,,,0.98,weatherlink.com 1.10,2013-05-26 02:39:00,
2013-05-25 22:54:00,43.6,41.0,29.93,ESE,122,4.0,-999.0,91,-99.99,,,0.98,weatherlink.com 1.10,2013-05-26 02:54:00,
2013-05-25 23:09:00,43.7,41.0,29.92,SSE,163,4.0,-999.0,90,-99.99,,,0.98,weatherlink.com 1.10,2013-05-26 03:09:00,
2013-05-25 23:24:00,43.8,41.0,29.92,SE,146,10.0,-999.0,89,-99.99,,,0.98,weatherlink.com 1.10,2013-05-26 03:24:00,
2013-05-25 23:39:00,43.6,41.0,29.92,ENE,66,0.0,-999.0,89,-99.99,,,0.98,weatherlink.com 1.10,2013-05-26 03:39:00,
2013-05-25 23:54:00,43.6,41.0,29.91,SW,225,4.0,-999.0,89,-99.99,,,0.98,weatherlink.com 1.10,2013-05-26 03:54:00,